�������l�o���
Date,Time,MP-1(��Sv/h),MP-2(��Sv/h),MP-3(��Sv/h),MP-4(��Sv/h),MP-5(��Sv/h),MP-6(��Sv/h),MP-7(��Sv/h),MP-8(��Sv/h),����,����(m/s),���J
2018/06/23,00:00,0.878,1.238,0.857,1.547,1.078,0.477,0.829,0.789,��쐼,3.3,��
2018/06/23,00:10,0.880,1.240,0.855,1.553,1.079,0.478,0.826,0.788,��쐼,4.9,��
2018/06/23,00:20,0.881,1.239,0.856,1.549,1.076,0.478,0.827,0.788,��,4.7,��
2018/06/23,00:30,0.878,1.238,0.856,1.552,1.075,0.478,0.829,0.788,��,4.9,��
2018/06/23,00:40,0.878,1.237,0.858,1.551,1.077,0.479,0.827,0.788,��,4.0,��
2018/06/23,00:50,0.880,1.238,0.856,1.550,1.078,0.477,0.826,0.788,��,4.9,��
2018/06/23,01:00,0.878,1.238,0.854,1.551,1.079,0.478,0.827,0.788,��,4.8,��
2018/06/23,01:10,0.879,1.237,0.856,1.550,1.077,0.478,0.824,0.788,��쐼,4.7,��
2018/06/23,01:20,0.882,1.239,0.855,1.550,1.077,0.478,0.827,0.789,��쐼,4.8,��
2018/06/23,01:30,0.881,1.241,0.858,1.553,1.078,0.479,0.826,0.789,��쐼,4.7,��
2018/06/23,01:40,0.880,1.239,0.855,1.549,1.079,0.478,0.827,0.787,��쐼,5.8,��
2018/06/23,01:50,0.880,1.238,0.856,1.552,1.075,0.478,0.828,0.790,��쐼,5.3,��
2018/06/23,02:00,0.880,1.238,0.854,1.547,1.076,0.478,0.828,0.788,��쐼,5.5,��
2018/06/23,02:10,0.880,1.238,0.855,1.551,1.077,0.477,0.827,0.788,�쐼,5.3,��
2018/06/23,02:20,0.878,1.239,0.856,1.548,1.076,0.477,0.828,0.789,�쐼,3.9,��
2018/06/23,02:30,0.879,1.239,0.854,1.550,1.077,0.478,0.826,0.788,�쐼,4.3,��
2018/06/23,02:40,0.879,1.237,0.856,1.548,1.078,0.477,0.826,0.788,���쐼,3.5,��
2018/06/23,02:50,0.879,1.238,0.855,1.549,1.079,0.478,0.827,0.789,�쐼,3.3,��
2018/06/23,03:00,0.878,1.237,0.854,1.549,1.076,0.477,0.827,0.787,��쐼,3.8,��
2018/06/23,03:10,0.878,1.237,0.856,1.550,1.076,0.478,0.825,0.789,�쐼,3.1,��
2018/06/23,03:20,0.879,1.236,0.854,1.550,1.077,0.477,0.827,0.788,�쐼,3.2,��
2018/06/23,03:30,0.881,1.235,0.857,1.550,1.078,0.477,0.827,0.790,��쐼,3.3,��
2018/06/23,03:40,0.879,1.241,0.855,1.548,1.077,0.478,0.827,0.787,��쐼,4.3,��
2018/06/23,03:50,0.879,1.236,0.855,1.549,1.077,0.479,0.826,0.788,�쐼,4.2,��
2018/06/23,04:00,0.877,1.236,0.855,1.550,1.076,0.478,0.825,0.788,�쐼,2.2,��
2018/06/23,04:10,0.878,1.239,0.856,1.548,1.077,0.476,0.827,0.787,�쐼,2.8,��
2018/06/23,04:20,0.878,1.238,0.855,1.550,1.076,0.476,0.826,0.789,�쐼,3.5,��
2018/06/23,04:30,0.877,1.236,0.854,1.549,1.077,0.476,0.827,0.787,�쐼,4.2,��
2018/06/23,04:40,0.877,1.236,0.856,1.547,1.079,0.476,0.826,0.790,��쐼,4.5,��
2018/06/23,04:50,0.877,1.237,0.856,1.552,1.076,0.478,0.827,0.791,��쐼,4.8,��
2018/06/23,05:00,0.879,1.237,0.854,1.548,1.077,0.477,0.827,0.790,�쐼,4.6,��
2018/06/23,05:10,0.880,1.237,0.856,1.550,1.078,0.478,0.828,0.787,�쐼,4.4,��
2018/06/23,05:20,0.879,1.238,0.854,1.547,1.077,0.477,0.828,0.790,�쐼,4.1,��
2018/06/23,05:30,0.878,1.237,0.856,1.549,1.076,0.477,0.826,0.789,�쐼,4.9,��
2018/06/23,05:40,0.879,1.237,0.856,1.550,1.075,0.478,0.826,0.789,��쐼,4.8,��
2018/06/23,05:50,0.880,1.237,0.855,1.551,1.074,0.477,0.827,0.788,�쐼,4.3,��
2018/06/23,06:00,0.878,1.239,0.855,1.550,1.078,0.480,0.827,0.792,��쐼,5.1,��
2018/06/23,06:10,0.878,1.236,0.858,1.550,1.078,0.478,0.827,0.790,��쐼,5.2,��
2018/06/23,06:20,0.880,1.238,0.857,1.551,1.079,0.476,0.826,0.789,�쐼,5.0,��
2018/06/23,06:30,0.878,1.240,0.857,1.551,1.079,0.476,0.828,0.787,�쐼,4.5,��
2018/06/23,06:40,0.880,1.238,0.858,1.552,1.077,0.478,0.828,0.790,�쐼,2.3,��
2018/06/23,06:50,0.881,1.238,0.856,1.550,1.077,0.479,0.827,0.790,��쐼,1.9,��
2018/06/23,07:00,0.883,1.240,0.858,1.552,1.078,0.477,0.828,0.790,��쐼,3.0,��
2018/06/23,07:10,0.879,1.239,0.859,1.549,1.079,0.476,0.827,0.789,�쐼,3.1,��
2018/06/23,07:20,0.880,1.240,0.857,1.549,1.079,0.476,0.827,0.789,�쐼,3.1,��
2018/06/23,07:30,0.882,1.238,0.859,1.551,1.077,0.474,0.826,0.788,�쐼,2.8,��
2018/06/23,07:40,0.880,1.240,0.858,1.551,1.079,0.475,0.827,0.790,�쐼,1.2,��
2018/06/23,07:50,0.880,1.234,0.855,1.553,1.078,0.476,0.826,0.790,��쐼,1.2,��
2018/06/23,08:00,0.878,1.238,0.857,1.552,1.077,0.476,0.825,0.787,��쓌,1.5,��
2018/06/23,08:10,0.879,1.236,0.858,1.551,1.081,0.475,0.826,0.787,��,2.2,��
2018/06/23,08:20,0.879,1.236,0.856,1.552,1.081,0.477,0.826,0.786,��쓌,2.2,��
2018/06/23,08:30,0.879,1.238,0.857,1.551,1.080,0.475,0.826,0.788,�쓌,2.0,��
2018/06/23,08:40,0.879,1.237,0.858,1.554,1.081,0.476,0.825,0.787,��쓌,3.0,��
2018/06/23,08:50,0.880,1.237,0.860,1.554,1.077,0.477,0.827,0.787,�쓌,3.9,��
2018/06/23,09:00,0.880,1.239,0.858,1.552,1.078,0.478,0.825,0.787,��쓌,3.3,��
2018/06/23,09:10,0.879,1.238,0.858,1.555,1.081,0.475,0.826,0.787,��쓌,4.1,��
2018/06/23,09:20,0.878,1.238,0.856,1.552,1.081,0.477,0.829,0.788,��쓌,4.3,��
2018/06/23,09:30,0.878,1.240,0.856,1.554,1.079,0.477,0.826,0.787,��쓌,3.7,��
2018/06/23,09:40,0.881,1.238,0.857,1.554,1.077,0.477,0.826,0.787,��쓌,3.9,��
2018/06/23,09:50,0.880,1.238,0.858,1.553,1.081,0.477,0.827,0.787,��쓌,3.9,��
2018/06/23,10:00,0.881,1.238,0.859,1.552,1.079,0.477,0.827,0.789,��,5.5,��
2018/06/23,10:10,0.879,1.239,0.859,1.555,1.083,0.478,0.827,0.788,��쓌,6.1,��
2018/06/23,10:20,0.881,1.242,0.857,1.553,1.080,0.477,0.828,0.788,��,6.5,��
2018/06/23,10:30,0.882,1.238,0.857,1.553,1.082,0.479,0.828,0.788,��,6.4,��
2018/06/23,10:40,0.881,1.239,0.858,1.554,1.080,0.477,0.829,0.787,��,6.6,��
2018/06/23,10:50,0.880,1.238,0.858,1.552,1.080,0.479,0.827,0.787,��,5.9,��
2018/06/23,11:00,0.882,1.239,0.858,1.551,1.080,0.478,0.827,0.790,��,6.5,��
2018/06/23,11:10,0.881,1.240,0.859,1.554,1.079,0.479,0.827,0.786,��,7.1,��
2018/06/23,11:20,0.881,1.240,0.858,1.554,1.080,0.477,0.826,0.788,��,7.0,��
2018/06/23,11:30,0.879,1.243,0.856,1.551,1.080,0.477,0.828,0.787,��쓌,7.6,��
2018/06/23,11:40,0.878,1.240,0.857,1.552,1.080,0.478,0.829,0.788,��,9.1,��
2018/06/23,11:50,0.880,1.243,0.859,1.554,1.080,0.479,0.826,0.787,��,7.6,��
2018/06/23,12:00,0.881,1.241,0.857,1.554,1.081,0.478,0.827,0.787,��,8.3,��
2018/06/23,12:10,0.879,1.240,0.856,1.553,1.079,0.478,0.829,0.785,��쓌,9.2,��
2018/06/23,12:20,0.883,1.241,0.859,1.555,1.081,0.477,0.827,0.788,��,9.9,��
2018/06/23,12:30,0.882,1.241,0.857,1.554,1.082,0.477,0.828,0.788,��,7.1,��
2018/06/23,12:40,0.881,1.241,0.858,1.554,1.082,0.478,0.827,0.788,��,6.9,��
2018/06/23,12:50,0.881,1.240,0.859,1.554,1.081,0.478,0.828,0.786,��쓌,9.4,��
2018/06/23,13:00,0.884,1.241,0.858,1.554,1.079,0.479,0.828,0.788,��,10.5,��
2018/06/23,13:10,0.880,1.242,0.858,1.552,1.081,0.477,0.829,0.788,��쓌,9.0,��
2018/06/23,13:20,0.881,1.244,0.861,1.551,1.080,0.477,0.829,0.788,��,9.3,��
2018/06/23,13:30,0.880,1.242,0.859,1.552,1.081,0.479,0.827,0.788,��쓌,10.5,��
2018/06/23,13:40,0.880,1.243,0.860,1.553,1.081,0.478,0.827,0.787,��쓌,10.2,��
2018/06/23,13:50,0.880,1.244,0.859,1.555,1.081,0.477,0.827,0.787,��쓌,7.8,��
2018/06/23,14:00,0.882,1.246,0.858,1.557,1.083,0.478,0.827,0.788,��쓌,6.4,��
2018/06/23,14:10,0.882,1.246,0.859,1.555,1.083,0.479,0.827,0.787,��쓌,6.0,��
2018/06/23,14:20,0.881,1.244,0.858,1.557,1.080,0.479,0.828,0.787,��쓌,6.5,��
2018/06/23,14:30,0.882,1.241,0.859,1.555,1.081,0.479,0.827,0.787,��,6.0,��
2018/06/23,14:40,0.880,1.243,0.860,1.557,1.081,0.479,0.828,0.787,��,5.4,�L
2018/06/23,14:50,0.880,1.245,0.859,1.556,1.081,0.479,0.827,0.788,��쓌,10.3,�L
2018/06/23,15:00,0.881,1.244,0.859,1.557,1.080,0.479,0.829,0.788,��,10.7,��
2018/06/23,15:10,0.883,1.245,0.859,1.557,1.084,0.480,0.826,0.787,��,10.2,�L
2018/06/23,15:20,0.881,1.244,0.857,1.556,1.082,0.481,0.828,0.787,��,8.2,�L
2018/06/23,15:30,0.884,1.246,0.858,1.557,1.084,0.478,0.830,0.788,��,6.4,�L
2018/06/23,15:40,0.884,1.245,0.858,1.558,1.082,0.480,0.829,0.790,��,8.3,��
2018/06/23,15:50,0.883,1.245,0.859,1.557,1.083,0.480,0.828,0.789,��,8.5,�L
2018/06/23,16:00,0.882,1.245,0.858,1.555,1.080,0.479,0.828,0.789,��,11.4,�L
2018/06/23,16:10,0.882,1.245,0.858,1.558,1.082,0.478,0.825,0.787,��쓌,10.6,��
2018/06/23,16:20,0.881,1.245,0.857,1.560,1.080,0.478,0.829,0.787,��쓌,12.2,�L
2018/06/23,16:30,0.882,1.246,0.859,1.556,1.081,0.479,0.828,0.787,��,9.6,�L
2018/06/23,16:40,0.883,1.246,0.860,1.557,1.083,0.480,0.827,0.789,��쓌,9.5,�L
2018/06/23,16:50,0.883,1.245,0.859,1.556,1.079,0.478,0.825,0.788,��,8.8,�L
2018/06/23,17:00,0.883,1.244,0.859,1.555,1.079,0.478,0.826,0.788,��,8.4,�L
2018/06/23,17:10,0.881,1.243,0.859,1.556,1.077,0.480,0.826,0.786,��,9.7,�L
2018/06/23,17:20,0.880,1.242,0.858,1.553,1.078,0.480,0.826,0.786,��쐼,7.7,�L
2018/06/23,17:30,0.880,1.240,0.857,1.553,1.079,0.478,0.826,0.785,��쐼,6.8,�L
2018/06/23,17:40,0.882,1.242,0.859,1.554,1.078,0.478,0.825,0.785,��,4.8,�L
2018/06/23,17:50,0.878,1.240,0.860,1.553,1.077,0.480,0.826,0.786,��,5.5,�L
2018/06/23,18:00,0.880,1.238,0.860,1.551,1.077,0.481,0.827,0.785,��쓌,6.4,�L
2018/06/23,18:10,0.879,1.238,0.857,1.556,1.076,0.480,0.827,0.786,��,7.2,�L
2018/06/23,18:20,0.879,1.236,0.860,1.555,1.078,0.479,0.825,0.788,��,7.4,�L
2018/06/23,18:30,0.880,1.238,0.860,1.553,1.077,0.479,0.827,0.788,��,8.3,�L
2018/06/23,18:40,0.881,1.240,0.860,1.556,1.079,0.480,0.826,0.788,��,7.7,�L
2018/06/23,18:50,0.880,1.239,0.861,1.553,1.079,0.479,0.827,0.788,��쓌,7.3,�L
2018/06/23,19:00,0.878,1.240,0.861,1.555,1.079,0.481,0.827,0.788,��,7.2,�L
2018/06/23,19:10,0.880,1.239,0.860,1.552,1.077,0.479,0.826,0.790,��,8.4,�L
2018/06/23,19:20,0.879,1.238,0.859,1.555,1.078,0.480,0.828,0.789,��,8.4,�L
2018/06/23,19:30,0.879,1.235,0.859,1.553,1.075,0.479,0.827,0.790,��쓌,8.5,�L
2018/06/23,19:40,0.876,1.239,0.860,1.553,1.074,0.478,0.827,0.788,��쓌,10.7,�L
2018/06/23,19:50,0.878,1.237,0.859,1.551,1.075,0.478,0.827,0.788,��,8.6,�L
2018/06/23,20:00,0.878,1.238,0.860,1.553,1.077,0.478,0.826,0.788,��쓌,9.0,�L
2018/06/23,20:10,0.878,1.234,0.859,1.552,1.075,0.477,0.827,0.789,��,8.5,�L
2018/06/23,20:20,0.877,1.237,0.858,1.552,1.073,0.478,0.825,0.788,��,7.0,��
2018/06/23,20:30,0.876,1.239,0.859,1.553,1.074,0.479,0.826,0.789,��쐼,4.9,��
2018/06/23,20:40,0.877,1.238,0.858,1.552,1.074,0.479,0.829,0.788,��쐼,5.0,��
2018/06/23,20:50,0.878,1.241,0.857,1.553,1.075,0.479,0.828,0.788,��쐼,5.3,��
2018/06/23,21:00,0.879,1.237,0.860,1.554,1.076,0.480,0.827,0.787,��쐼,3.2,��
2018/06/23,21:10,0.878,1.241,0.859,1.551,1.076,0.479,0.828,0.788,�쐼,2.6,��
2018/06/23,21:20,0.880,1.241,0.859,1.552,1.080,0.480,0.829,0.788,�쐼,2.3,��
2018/06/23,21:30,0.879,1.241,0.859,1.552,1.077,0.479,0.829,0.788,�쐼,1.7,��
2018/06/23,21:40,0.881,1.241,0.859,1.554,1.077,0.479,0.829,0.786,�쐼,0.9,��
2018/06/23,21:50,0.881,1.239,0.859,1.550,1.078,0.479,0.826,0.788,-,CALM,��
2018/06/23,22:00,0.879,1.242,0.859,1.550,1.075,0.480,0.827,0.788,�쐼,1.1,��
2018/06/23,22:10,0.882,1.237,0.858,1.555,1.077,0.480,0.828,0.791,��,1.7,��
2018/06/23,22:20,0.879,1.240,0.859,1.549,1.079,0.479,0.829,0.788,���k��,1.9,��
2018/06/23,22:30,0.882,1.241,0.859,1.551,1.077,0.479,0.826,0.789,�k��,2.0,��
2018/06/23,22:40,0.881,1.239,0.857,1.553,1.078,0.480,0.826,0.789,���k��,1.7,��
2018/06/23,22:50,0.879,1.237,0.857,1.553,1.078,0.480,0.829,0.786,��,1.2,��
2018/06/23,23:00,0.880,1.240,0.858,1.550,1.078,0.478,0.829,0.787,��,0.6,��
2018/06/23,23:10,0.879,1.239,0.858,1.548,1.079,0.480,0.828,0.790,��,1.5,��
2018/06/23,23:20,0.881,1.238,0.859,1.549,1.080,0.479,0.828,0.789,��쓌,2.0,��
2018/06/23,23:30,0.879,1.238,0.858,1.551,1.078,0.479,0.828,0.788,��쐼,1.2,��
2018/06/23,23:40,0.879,1.238,0.858,1.550,1.080,0.480,0.827,0.788,��쓌,1.2,��
2018/06/23,23:50,0.879,1.236,0.857,1.548,1.077,0.478,0.829,0.787,��쓌,1.2,��
